Location: Bernadets
(43.3537°N, 0.3167°E)
Time: 00:57:13
(UTC+00:00)

Cosmos 2333 - Pass Details

Date: 24 October 2021
Orbit: 829 x 866 km, 70.9° (Epoch: 06 December)

Event Time Altitude Azimuth Distance (km) Brightness Sun altitude
Rises 19:30:04 0° 209° (SSW) 3,367 7.6 -27.6°
Reaches altitude 10° 19:32:30 10° 211° (SSW) 2,441 6.8 -28.1°
Maximum altitude 19:38:05 73° 296° (WNW) 882 4.3 -29.1°
Enters shadow 19:38:52 63° 349° (NNW) 939 4.4 -29.2°
